User: anonymous   Login
Location: Unspecified
(0.0000°N, 0.0000°E)
Time: 23:20:00
(UTC+00:00)
Language:

Cubesat XI-IV - Orbit

View from above orbital plane
View from above orbital plane
View from above satellite
View from above satellite

Ground track
Ground track

The orbit data is extracted from the following two-line orbital elements,

1 27848U 03031J   17141.96386169 +.00000059 +00000-0 +46819-4 0  9994
2 27848 098.6992 151.5996 0010865 074.9170 285.3209 14.21651221720449
Epoch (UTC): 21 May 2017 23:07:57
Eccentricity: 0.0010865
inclination: 98.6992°
perigee height: 812 km
apogee height: 827 km
right ascension of ascending node: 151.5996°
argument of perigee: 74.9170°
revolutions per day: 14.21651221
mean anomaly at epoch: 285.3209°
orbit number at epoch: 72044

The dashed part of the orbit path shows where the satellite is in the earth's shadow,  

DLR